| time (UTC) | temp C | wind direction | speed KPH | gust KPH | rain 1hr cm | rain 24hr cm | rain mn cm | humidity % | barometer mb |
| 20260507152512 | 17 | 158 | 3.2 | 8.0 | 0.00 | 0.00 | 0.00 | 78 | 1013.0 |
| 20260507152412 | 17 | 158 | 3.2 | 8.0 | 0.00 | 0.00 | 0.00 | 78 | 1013.0 |
| 20260507150511 | 17 | 158 | 3.2 | 8.0 | 0.00 | 0.00 | 0.00 | 77 | 1013.0 |
| 20260507150411 | 17 | 158 | 3.2 | 8.0 | 0.00 | 0.00 | 0.00 | 77 | 1013.0 |
| 20260507144511 | 17 | 158 | 3.2 | 8.0 | 0.00 | 0.00 | 0.00 | 74 | 1014.0 |
| 20260507144410 | 17 | 158 | 3.2 | 8.0 | 0.00 | 0.00 | 0.00 | 74 | 1014.0 |
| 20260507142510 | 17 | 103 | 0.0 | 6.4 | 0.00 | 0.00 | 0.00 | 80 | 1013.0 |
| 20260507142410 | 17 | 103 | 0.0 | 6.4 | 0.00 | 0.00 | 0.00 | 80 | 1013.0 |
| 20260507140510 | 18 | 103 | 0.0 | 6.4 | 0.00 | 0.00 | 0.00 | 79 | 1013.0 |
| 20260507140409 | 18 | 103 | 0.0 | 6.4 | 0.00 | 0.00 | 0.00 | 79 | 1013.0 |
| 20260507134509 | 16 | 23 | 1.6 | 4.8 | 0.00 | 0.00 | 0.00 | 86 | 1014.0 |
| 20260507134409 | 16 | 23 | 1.6 | 4.8 | 0.00 | 0.00 | 0.00 | 86 | 1014.0 |
| 20260507132508 | 16 | 23 | 1.6 | 4.8 | 0.00 | 0.00 | 0.00 | 86 | 1013.0 |
| 20260507132408 | 16 | 23 | 1.6 | 4.8 | 0.00 | 0.00 | 0.00 | 86 | 1013.0 |
| 20260507130508 | 17 | 23 | 3.2 | 4.8 | 0.00 | 0.00 | 0.00 | 85 | 1012.0 |
| 20260507130408 | 17 | 23 | 3.2 | 4.8 | 0.00 | 0.00 | 0.00 | 85 | 1012.0 |
| 20260507124507 | 13 | 23 | 3.2 | 4.8 | 0.00 | 0.00 | 0.00 | 83 | 1013.0 |
| 20260507124407 | 13 | 23 | 3.2 | 4.8 | 0.00 | 0.00 | 0.00 | 83 | 1013.0 |
| 20260507122507 | 13 | 15 | 4.8 | 6.4 | 0.00 | 0.00 | 0.00 | 88 | 1012.0 |
| 20260507122406 | 13 | 15 | 4.8 | 6.4 | 0.00 | 0.00 | 0.00 | 88 | 1012.0 |
| 20260507120506 | 13 | 15 | 4.8 | 6.4 | 0.00 | 0.00 | 0.00 | 88 | 1012.0 |
| 20260507120406 | 13 | 15 | 4.8 | 6.4 | 0.00 | 0.00 | 0.00 | 88 | 1012.0 |
| 20260507114506 | 13 | 15 | 4.8 | 6.4 | 0.00 | 0.00 | 0.00 | 89 | 1013.0 |
| 20260507114405 | 13 | 15 | 4.8 | 6.4 | 0.00 | 0.00 | 0.00 | 89 | 1013.0 |
| 20260507112505 | 13 | 18 | 6.4 | 8.0 | 0.00 | 0.00 | 0.00 | 86 | 1012.0 |
| 20260507112405 | 13 | 18 | 6.4 | 8.0 | 0.00 | 0.00 | 0.00 | 86 | 1012.0 |
| 20260507110504 | 13 | 18 | 6.4 | 8.0 | 0.00 | 0.00 | 0.00 | 86 | 1013.0 |
| 20260507110404 | 13 | 18 | 6.4 | 8.0 | 0.00 | 0.00 | 0.00 | 86 | 1013.0 |
| 20260507104504 | 13 | 15 | 6.4 | 8.0 | 0.00 | 0.00 | 0.00 | 86 | 1013.0 |
| 20260507104403 | 13 | 15 | 6.4 | 8.0 | 0.00 | 0.00 | 0.00 | 86 | 1013.0 |
| 20260507102503 | 13 | 15 | 6.4 | 8.0 | 0.00 | 0.00 | 0.00 | 86 | 1013.0 |
| 20260507102403 | 13 | 15 | 6.4 | 8.0 | 0.00 | 0.00 | 0.00 | 86 | 1013.0 |
| 20260507100503 | 13 | 15 | 6.4 | 8.0 | 0.00 | 0.00 | 0.00 | 83 | 1012.0 |
| 20260507100402 | 13 | 15 | 6.4 | 8.0 | 0.00 | 0.00 | 0.00 | 83 | 1012.0 |
| 20260507094502 | 13 | 15 | 6.4 | 8.0 | 0.00 | 0.00 | 0.00 | 83 | 1013.0 |
| 20260507094402 | 13 | 15 | 6.4 | 8.0 | 0.00 | 0.00 | 0.00 | 83 | 1013.0 |
| 20260507092502 | 14 | 15 | 6.4 | 8.0 | 0.00 | 0.00 | 0.00 | 86 | 1012.0 |
| 20260507092401 | 14 | 15 | 6.4 | 8.0 | 0.00 | 0.00 | 0.00 | 86 | 1012.0 |
| 20260507090501 | 13 | 18 | 4.8 | 6.4 | 0.00 | 0.00 | 0.00 | 86 | 1012.0 |
| 20260507090400 | 13 | 18 | 4.8 | 6.4 | 0.00 | 0.00 | 0.00 | 86 | 1012.0 |
| 20260507084500 | 13 | 18 | 4.8 | 6.4 | 0.00 | 0.00 | 0.00 | 86 | 1013.0 |
| 20260507084400 | 13 | 18 | 4.8 | 6.4 | 0.00 | 0.00 | 0.00 | 86 | 1013.0 |
| 20260507082500 | 14 | 18 | 4.8 | 6.4 | 0.00 | 0.00 | 0.00 | 86 | 1012.0 |
| 20260507082400 | 14 | 18 | 4.8 | 6.4 | 0.00 | 0.00 | 0.00 | 86 | 1012.0 |
| 20260507080459 | 13 | 16 | 4.8 | 6.4 | 0.00 | 0.00 | 0.00 | 86 | 1012.0 |
| 20260507080359 | 13 | 16 | 4.8 | 6.4 | 0.00 | 0.00 | 0.00 | 86 | 1012.0 |
| 20260507074459 | 13 | 16 | 4.8 | 6.4 | 0.00 | 0.00 | 0.00 | 86 | 1013.0 |
| 20260507074358 | 13 | 16 | 4.8 | 6.4 | 0.00 | 0.00 | 0.00 | 86 | 1013.0 |
| 20260507072458 | 14 | 16 | 4.8 | 6.4 | 0.00 | 0.00 | 0.00 | 86 | 1012.0 |
| 20260507072358 | 14 | 16 | 4.8 | 6.4 | 0.00 | 0.00 | 0.00 | 86 | 1012.0 |
| 20260507070458 | 13 | 16 | 6.4 | 8.0 | 0.00 | 0.00 | 0.00 | 86 | 1012.0 |
| 20260507070358 | 13 | 16 | 6.4 | 8.0 | 0.00 | 0.00 | 0.00 | 86 | 1012.0 |
| 20260507064457 | 13 | 16 | 6.4 | 8.0 | 0.00 | 0.00 | 0.00 | 86 | 1013.0 |
| 20260507064358 | 13 | 16 | 6.4 | 8.0 | 0.00 | 0.00 | 0.00 | 86 | 1013.0 |
| 20260507062457 | 14 | 16 | 6.4 | 8.0 | 0.00 | 0.00 | 0.00 | 86 | 1013.0 |
| 20260507062357 | 14 | 16 | 6.4 | 8.0 | 0.00 | 0.00 | 0.00 | 86 | 1013.0 |
| 20260507060456 | 13 | 16 | 6.4 | 8.0 | 0.00 | 0.00 | 0.00 | 89 | 1013.0 |
| 20260507060356 | 13 | 16 | 6.4 | 8.0 | 0.00 | 0.00 | 0.00 | 89 | 1013.0 |
| 20260507054456 | 14 | 16 | 6.4 | 8.0 | 0.00 | 0.00 | 0.00 | 89 | 1014.0 |
| 20260507054355 | 14 | 16 | 6.4 | 8.0 | 0.00 | 0.00 | 0.00 | 89 | 1014.0 |
| 20260507052455 | 13 | 18 | 6.4 | 8.0 | 0.00 | 0.00 | 0.00 | 85 | 1014.0 |
| 20260507052355 | 13 | 18 | 6.4 | 8.0 | 0.00 | 0.00 | 0.00 | 85 | 1014.0 |
| 20260507050455 | 14 | 18 | 6.4 | 8.0 | 0.00 | 0.00 | 0.00 | 85 | 1014.0 |
| 20260507050354 | 14 | 18 | 6.4 | 8.0 | 0.00 | 0.00 | 0.00 | 85 | 1014.0 |
| 20260507044454 | 15 | 18 | 6.4 | 8.0 | 0.00 | 0.00 | 0.00 | 89 | 1014.0 |
| 20260507044353 | 15 | 18 | 6.4 | 8.0 | 0.00 | 0.00 | 0.00 | 89 | 1014.0 |
| 20260507042453 | 13 | 22 | 4.8 | 8.0 | 0.00 | 0.00 | 0.00 | 84 | 1014.0 |
| 20260507042353 | 13 | 22 | 4.8 | 8.0 | 0.00 | 0.00 | 0.00 | 84 | 1014.0 |
| 20260507040453 | 14 | 22 | 4.8 | 8.0 | 0.00 | 0.00 | 0.00 | 84 | 1013.0 |
| 20260507040352 | 14 | 22 | 4.8 | 8.0 | 0.00 | 0.00 | 0.00 | 84 | 1013.0 |
| 20260507034452 | 15 | 22 | 4.8 | 8.0 | 0.00 | 0.00 | 0.00 | 84 | 1014.0 |
| 20260507034352 | 15 | 22 | 4.8 | 8.0 | 0.00 | 0.00 | 0.00 | 84 | 1014.0 |
| 20260507032451 | 15 | 22 | 4.8 | 8.0 | 0.00 | 0.00 | 0.00 | 88 | 1013.0 |
| 20260507032351 | 15 | 22 | 4.8 | 8.0 | 0.00 | 0.00 | 0.00 | 88 | 1013.0 |
| 20260507030451 | 14 | 23 | 4.8 | 8.0 | 0.00 | 0.00 | 0.00 | 88 | 1013.0 |
| 20260507030351 | 14 | 23 | 4.8 | 8.0 | 0.00 | 0.00 | 0.00 | 88 | 1013.0 |
| 20260507024450 | 15 | 23 | 4.8 | 8.0 | 0.00 | 0.00 | 0.00 | 88 | 1014.0 |
| 20260507024350 | 15 | 23 | 4.8 | 8.0 | 0.00 | 0.00 | 0.00 | 88 | 1014.0 |
| 20260507022450 | 15 | 23 | 4.8 | 8.0 | 0.00 | 0.00 | 0.00 | 88 | 1012.0 |
| 20260507022350 | 15 | 23 | 4.8 | 8.0 | 0.00 | 0.00 | 0.00 | 88 | 1012.0 |
| 20260507020449 | 14 | 44 | 1.6 | 6.4 | 0.00 | 0.00 | 0.00 | 80 | 1012.0 |
| 20260507020349 | 14 | 44 | 1.6 | 6.4 | 0.00 | 0.00 | 0.00 | 80 | 1012.0 |
| 20260507014449 | 15 | 44 | 1.6 | 6.4 | 0.00 | 0.00 | 0.00 | 80 | 1013.0 |
| 20260507014349 | 15 | 44 | 1.6 | 6.4 | 0.00 | 0.00 | 0.00 | 80 | 1013.0 |
| 20260507012448 | 15 | 44 | 1.6 | 6.4 | 0.00 | 0.00 | 0.00 | 80 | 1012.0 |
| 20260507012348 | 15 | 44 | 1.6 | 6.4 | 0.00 | 0.00 | 0.00 | 80 | 1012.0 |
| 20260507010447 | 16 | 44 | 1.6 | 6.4 | 0.00 | 0.00 | 0.00 | 80 | 1012.0 |
| 20260507010347 | 16 | 44 | 1.6 | 6.4 | 0.00 | 0.00 | 0.00 | 80 | 1012.0 |
| 20260507004447 | 16 | 44 | 1.6 | 6.4 | 0.00 | 0.00 | 0.00 | 80 | 1013.0 |
| 20260507004347 | 16 | 44 | 1.6 | 6.4 | 0.00 | 0.00 | 0.00 | 80 | 1013.0 |
| 20260507002446 | 17 | 44 | 1.6 | 6.4 | 0.00 | 0.00 | 0.00 | 80 | 1012.0 |
| 20260507002346 | 17 | 44 | 1.6 | 6.4 | 0.00 | 0.00 | 0.00 | 80 | 1012.0 |
| 20260507000446 | 17 | 44 | 1.6 | 6.4 | 0.00 | 0.00 | 0.00 | 81 | 1012.0 |
| 20260507000345 | 17 | 44 | 1.6 | 6.4 | 0.00 | 0.00 | 0.00 | 81 | 1012.0 |
| 20260506234445 | 18 | 44 | 3.2 | 6.4 | 0.00 | 0.00 | 0.00 | 84 | 1012.0 |
| 20260506234345 | 18 | 44 | 3.2 | 6.4 | 0.00 | 0.00 | 0.00 | 84 | 1012.0 |
| 20260506232445 | 16 | 134 | 1.6 | 8.0 | 0.00 | 0.00 | 0.00 | 77 | 1012.0 |
| 20260506232344 | 16 | 134 | 1.6 | 8.0 | 0.00 | 0.00 | 0.00 | 77 | 1012.0 |
| 20260506230444 | 17 | 134 | 1.6 | 8.0 | 0.00 | 0.00 | 0.00 | 77 | 1012.0 |
| 20260506230344 | 17 | 134 | 1.6 | 8.0 | 0.00 | 0.00 | 0.00 | 77 | 1012.0 |
| 20260506224444 | 17 | 134 | 1.6 | 8.0 | 0.00 | 0.00 | 0.00 | 77 | 1012.0 |
| 20260506224343 | 17 | 134 | 1.6 | 8.0 | 0.00 | 0.00 | 0.00 | 77 | 1012.0 |
| 20260506222443 | 18 | 134 | 1.6 | 8.0 | 0.03 | 0.00 | 0.00 | 77 | 1011.0 |
| 20260506222343 | 18 | 134 | 1.6 | 8.0 | 0.03 | 0.00 | 0.00 | 77 | 1011.0 |
| 20260506220443 | 18 | 134 | 1.6 | 8.0 | 0.00 | 0.00 | 0.00 | 77 | 1011.0 |
| 20260506220343 | 18 | 134 | 1.6 | 8.0 | 0.00 | 0.00 | 0.00 | 77 | 1011.0 |
| 20260506214442 | 19 | 134 | 3.2 | 8.0 | 0.03 | 0.00 | 0.00 | 78 | 1011.0 |
| 20260506214342 | 19 | 134 | 3.2 | 8.0 | 0.03 | 0.00 | 0.00 | 78 | 1011.0 |
| 20260506212442 | 19 | 143 | 3.2 | 6.4 | 0.00 | 0.00 | 0.00 | 74 | 1011.0 |
| 20260506212341 | 19 | 143 | 3.2 | 6.4 | 0.00 | 0.00 | 0.00 | 74 | 1011.0 |
| 20260506210441 | 19 | 143 | 3.2 | 6.4 | 0.00 | 0.00 | 0.00 | 75 | 1011.0 |
| 20260506210341 | 19 | 143 | 3.2 | 6.4 | 0.00 | 0.00 | 0.00 | 75 | 1011.0 |
| 20260506204440 | 19 | 143 | 3.2 | 6.4 | 0.00 | 0.00 | 0.00 | 76 | 1011.0 |
| 20260506204340 | 19 | 143 | 3.2 | 6.4 | 0.00 | 0.00 | 0.00 | 76 | 1011.0 |
| 20260506202440 | 19 | 138 | 1.6 | 6.4 | 0.00 | 0.00 | 0.00 | 75 | 1012.0 |
| 20260506202340 | 19 | 138 | 1.6 | 6.4 | 0.00 | 0.00 | 0.00 | 75 | 1012.0 |
| 20260506200439 | 20 | 138 | 1.6 | 6.4 | 0.03 | 0.00 | 0.00 | 75 | 1012.0 |
| 20260506200339 | 20 | 138 | 1.6 | 6.4 | 0.03 | 0.00 | 0.00 | 75 | 1012.0 |
| 20260506194439 | 19 | 138 | 1.6 | 6.4 | 0.03 | 0.00 | 0.00 | 75 | 1012.0 |
| 20260506194339 | 19 | 138 | 1.6 | 6.4 | 0.03 | 0.00 | 0.00 | 75 | 1012.0 |
| 20260506192438 | 19 | 140 | 1.6 | 8.0 | 0.00 | 0.00 | 0.00 | 75 | 1013.0 |
| 20260506192338 | 19 | 140 | 1.6 | 8.0 | 0.00 | 0.00 | 0.00 | 75 | 1013.0 |
| 20260506190437 | 20 | 140 | 3.2 | 8.0 | 0.05 | 0.00 | 0.00 | 75 | 1013.0 |
| 20260506190337 | 20 | 140 | 3.2 | 8.0 | 0.05 | 0.00 | 0.00 | 75 | 1013.0 |
| 20260506184437 | 19 | 162 | 4.8 | 6.4 | 0.00 | 0.00 | 0.00 | 75 | 1013.0 |
| 20260506184337 | 19 | 162 | 4.8 | 6.4 | 0.00 | 0.00 | 0.00 | 75 | 1013.0 |
| 20260506182436 | 20 | 162 | 4.8 | 6.4 | 0.03 | 0.00 | 0.00 | 75 | 1013.0 |
| 20260506182336 | 20 | 162 | 4.8 | 6.4 | 0.03 | 0.00 | 0.00 | 75 | 1013.0 |
| 20260506180436 | 19 | 162 | 4.8 | 6.4 | 0.00 | 0.00 | 0.00 | 75 | 1013.0 |
| 20260506180335 | 19 | 162 | 4.8 | 6.4 | 0.00 | 0.00 | 0.00 | 75 | 1013.0 |
| 20260506174435 | 20 | 162 | 4.8 | 6.4 | 0.03 | 0.00 | 0.00 | 75 | 1013.0 |
| 20260506174335 | 20 | 162 | 4.8 | 6.4 | 0.03 | 0.00 | 0.00 | 75 | 1013.0 |
| 20260506172435 | 20 | 172 | 4.8 | 8.0 | 0.00 | 0.00 | 0.00 | 72 | 1013.0 |
| 20260506172335 | 20 | 172 | 4.8 | 8.0 | 0.00 | 0.00 | 0.00 | 72 | 1013.0 |
| 20260506170434 | 20 | 172 | 4.8 | 8.0 | 0.00 | 0.00 | 0.00 | 71 | 1013.0 |
| 20260506170334 | 20 | 172 | 4.8 | 8.0 | 0.00 | 0.00 | 0.00 | 71 | 1013.0 |
| 20260506164434 | 20 | 172 | 4.8 | 8.0 | 0.00 | 0.00 | 0.00 | 70 | 1013.0 |
| 20260506164334 | 20 | 172 | 4.8 | 8.0 | 0.00 | 0.00 | 0.00 | 70 | 1013.0 |
| 20260506162434 | 20 | 168 | 3.2 | 8.0 | 0.00 | 0.00 | 0.00 | 72 | 1013.0 |
| 20260506162333 | 20 | 168 | 3.2 | 8.0 | 0.00 | 0.00 | 0.00 | 72 | 1013.0 |
| 20260506160433 | 20 | 168 | 3.2 | 8.0 | 0.00 | 0.00 | 0.00 | 72 | 1013.0 |
| 20260506160332 | 20 | 168 | 3.2 | 8.0 | 0.00 | 0.00 | 0.00 | 72 | 1013.0 |
| 20260506154432 | 19 | 168 | 3.2 | 8.0 | 0.00 | 0.00 | 0.00 | 70 | 1013.0 |
| 20260506154332 | 19 | 168 | 3.2 | 8.0 | 0.00 | 0.00 | 0.00 | 70 | 1013.0 |